Flag for Germany Weather past 2 weeks in Schwäbisch Hall, Baden-Württemberg, Germany

Now
32 °F

Chilly.


Feels Like: 32 °F
Forecast: 31 / 57 °F
Wind: No wind

Location: Oehringen


UV Index: 3 (Moderate)

Visibility: 8 mi


Pressure: 30.41 "Hg

Humidity: 95%

Dew point: 31 °F

Location of Schwäbisch HallLocation

Historic Weather in Schwäbisch Hall

°F

Schwäbisch Hall temperature yesterday

Maximum temperature yesterday: 46 °F (at 3:00 PM)
Minimum temperature yesterday: 35 °F (at 5:00 AM)
Average temperature yesterday: 43 °F

Past Weeks' High & Low Weather Summary

 TemperatureHumidityPressure
High74 °F (Apr 3, 5:00 PM)97% (Apr 6, 1:00 AM)30.41 "Hg (Apr 6, 1:00 AM)
Low32 °F (Apr 16, 7:00 AM)27% (Apr 1, 4:00 PM)29.63 "Hg (Apr 3, 5:00 PM)
Average55 °F63%30.00 "Hg
* Reported Apr 1 7:00 AM — Apr 16 7:00 AM, Schwäbisch Hall, Weather by CustomWeather, © 2014

Note: Actual official high and low records may vary slightly from our data, if they occured in-between our weather recording intervals... More about our weather records

Advertising

Historic Weather Conditions — Data for Previous 24 hours

 ConditionsComfort  
Time TempWeatherWind HumidityBarometerVisibility
7:00 AM
Apr 16
32 °FChilly.No wind95%30.41 "Hg8 mi
6:00 AM32 °FChilly.1 mph94%30.40 "Hg8 mi
5:00 AM33 °FChilly.1 mph92%30.38 "Hg9 mi
4:00 AM34 °FChilly.1 mph91%30.38 "Hg10 mi
3:00 AM35 °FChilly.1 mph89%30.37 "Hg11 mi
12:00 AM42 °FQuite cool.1 mph70%30.34 "Hg19 mi
11:00 PM
Apr 15
42 °FQuite cool.1 mph66%30.32 "Hg19 mi
10:00 PM43 °FQuite cool.1 mph64%30.31 "Hg25 mi
9:00 PM44 °FQuite cool.2 mph60%30.30 "Hg22 mi
8:00 PM44 °FQuite cool.1 mph59%30.28 "Hg28 mi
7:00 PM45 °FCool.2 mph55%30.29 "Hg28 mi
6:00 PM45 °FCool.2 mph56%30.29 "Hg31 mi
5:00 PM45 °FCool.2 mph54%30.29 "Hg31 mi
4:00 PM45 °FCool.3 mph54%30.28 "Hg28 mi
3:00 PM46 °FCool.3 mph57%30.29 "Hg25 mi
2:00 PM43 °FQuite cool.3 mph59%30.30 "Hg31 mi
1:00 PM43 °FLight rain. Cloudy.2 mph63%30.30 "Hg31 mi
12:00 PM43 °FQuite cool.3 mph62%30.29 "Hg34 mi
11:00 AM43 °FQuite cool.3 mph67%30.28 "Hg25 mi
10:00 AM41 °FQuite cool.2 mph78%30.27 "Hg17 mi
9:00 AM38 °FChilly.2 mph85%30.27 "Hg14 mi
8:00 AM37 °FChilly.3 mph89%30.26 "Hg11 mi
Weather by CustomWeather, © 2014

See weather overview